地点,時刻,積雪(cm)
車力,2022/02/26 23:00,69
車力,2022/02/27 00:00,68
車力,2022/02/27 01:00,68
車力,2022/02/27 02:00,67
車力,2022/02/27 03:00,67
車力,2022/02/27 04:00,66
車力,2022/02/27 05:00,66
車力,2022/02/27 06:00,66
車力,2022/02/27 07:00,65
車力,2022/02/27 08:00,65
車力,2022/02/27 09:00,65
車力,2022/02/27 10:00,64
車力,2022/02/27 11:00,64
車力,2022/02/27 12:00,64
車力,2022/02/27 13:00,64
車力,2022/02/27 14:00,64
車力,2022/02/27 15:00,64
車力,2022/02/27 16:00,64
車力,2022/02/27 17:00,64
車力,2022/02/27 18:00,64
車力,2022/02/27 19:00,64
車力,2022/02/27 20:00,64
車力,2022/02/27 21:00,64
車力,2022/02/27 22:00,64
車力,2022/02/27 23:00,64
車力,2022/02/28 00:00,66
車力,2022/02/28 01:00,66
車力,2022/02/28 02:00,66
車力,2022/02/28 03:00,65
車力,2022/02/28 04:00,65
車力,2022/02/28 05:00,65
車力,2022/02/28 06:00,65
車力,2022/02/28 07:00,65
車力,2022/02/28 08:00,64
車力,2022/02/28 09:00,64
車力,2022/02/28 10:00,63
車力,2022/02/28 11:00,63
車力,2022/02/28 12:00,63
車力,2022/02/28 13:00,62
車力,2022/02/28 14:00,62
車力,2022/02/28 15:00,61
車力,2022/02/28 16:00,61
車力,2022/02/28 17:00,61
車力,2022/02/28 18:00,61
車力,2022/02/28 19:00,61
車力,2022/02/28 20:00,61
車力,2022/02/28 21:00,61
車力,2022/02/28 22:00,61
車力,2022/02/28 23:00,61
車力,2022/03/01 00:00,61
車力,2022/03/01 01:00,61
車力,2022/03/01 02:00,61
車力,2022/03/01 03:00,61
車力,2022/03/01 04:00,61
車力,2022/03/01 05:00,61
車力,2022/03/01 06:00,61
車力,2022/03/01 07:00,61
車力,2022/03/01 08:00,61
車力,2022/03/01 09:00,60
車力,2022/03/01 10:00,60
車力,2022/03/01 11:00,60
車力,2022/03/01 12:00,60
車力,2022/03/01 13:00,60
車力,2022/03/01 14:00,60
車力,2022/03/01 15:00,60
車力,2022/03/01 16:00,60
車力,2022/03/01 17:00,60
車力,2022/03/01 18:00,60
車力,2022/03/01 19:00,59
車力,2022/03/01 20:00,59
車力,2022/03/01 21:00,59
車力,2022/03/01 22:00,59
車力,2022/03/01 23:00,59
車力,2022/03/02 00:00,59
車力,2022/03/02 01:00,59
車力,2022/03/02 02:00,59
車力,2022/03/02 03:00,59
車力,2022/03/02 04:00,59
車力,2022/03/02 05:00,59
車力,2022/03/02 06:00,59
車力,2022/03/02 07:00,59
車力,2022/03/02 08:00,59
車力,2022/03/02 09:00,59
車力,2022/03/02 10:00,58
車力,2022/03/02 11:00,58
車力,2022/03/02 12:00,58
車力,2022/03/02 13:00,58
車力,2022/03/02 14:00,58
車力,2022/03/02 15:00,57
車力,2022/03/02 16:00,57
車力,2022/03/02 17:00,57
車力,2022/03/02 18:00,57
車力,2022/03/02 19:00,57
車力,2022/03/02 20:00,56
車力,2022/03/02 21:00,56
車力,2022/03/02 22:00,57
車力,2022/03/02 23:00,56
車力,2022/03/03 00:00,56
車力,2022/03/03 01:00,56
車力,2022/03/03 02:00,56
車力,2022/03/03 03:00,56
車力,2022/03/03 04:00,56
車力,2022/03/03 05:00,56
車力,2022/03/03 06:00,58
車力,2022/03/03 07:00,58
車力,2022/03/03 08:00,62
車力,2022/03/03 09:00,63
車力,2022/03/03 10:00,62
車力,2022/03/03 11:00,60
車力,2022/03/03 12:00,59
車力,2022/03/03 13:00,58
車力,2022/03/03 14:00,58
車力,2022/03/03 15:00,57
車力,2022/03/03 16:00,57
車力,2022/03/03 17:00,57
車力,2022/03/03 18:00,57
車力,2022/03/03 19:00,57
車力,2022/03/03 20:00,57
車力,2022/03/03 21:00,57
車力,2022/03/03 22:00,57
車力,2022/03/03 23:00,57
車力,2022/03/04 00:00,57
車力,2022/03/04 01:00,57
車力,2022/03/04 02:00,58
車力,2022/03/04 03:00,58
車力,2022/03/04 04:00,58
車力,2022/03/04 05:00,57
車力,2022/03/04 06:00,57
車力,2022/03/04 07:00,57
車力,2022/03/04 08:00,57
車力,2022/03/04 09:00,57
車力,2022/03/04 10:00,57
車力,2022/03/04 11:00,56
車力,2022/03/04 12:00,57
車力,2022/03/04 13:00,56
車力,2022/03/04 14:00,55
車力,2022/03/04 15:00,55
車力,2022/03/04 16:00,55
車力,2022/03/04 17:00,55
車力,2022/03/04 18:00,55
車力,2022/03/04 19:00,55
車力,2022/03/04 20:00,55
車力,2022/03/04 21:00,55
車力,2022/03/04 22:00,55
車力,2022/03/04 23:00,56
車力,2022/03/05 00:00,56
車力,2022/03/05 01:00,55
車力,2022/03/05 02:00,55
車力,2022/03/05 03:00,55
車力,2022/03/05 04:00,55
車力,2022/03/05 05:00,55
車力,2022/03/05 06:00,55
車力,2022/03/05 07:00,55
車力,2022/03/05 08:00,55
車力,2022/03/05 09:00,55
車力,2022/03/05 10:00,55
車力,2022/03/05 11:00,54
車力,2022/03/05 12:00,54
車力,2022/03/05 13:00,54
車力,2022/03/05 14:00,54
車力,2022/03/05 15:00,54
車力,2022/03/05 16:00,54
車力,2022/03/05 17:00,54
車力,2022/03/05 18:00,54
車力,2022/03/05 19:00,54
車力,2022/03/05 20:00,54
車力,2022/03/05 21:00,54
車力,2022/03/05 22:00,54
車力,2022/03/05 23:00,54
車力,2022/03/06 00:00,54
車力,2022/03/06 01:00,54
車力,2022/03/06 02:00,54
車力,2022/03/06 03:00,54
車力,2022/03/06 04:00,54
車力,2022/03/06 05:00,54
車力,2022/03/06 06:00,54
車力,2022/03/06 07:00,54
車力,2022/03/06 08:00,55
車力,2022/03/06 09:00,55
車力,2022/03/06 10:00,55
車力,2022/03/06 11:00,55
車力,2022/03/06 12:00,56
車力,2022/03/06 13:00,55
車力,2022/03/06 14:00,54
車力,2022/03/06 15:00,53
車力,2022/03/06 16:00,53
車力,2022/03/06 17:00,53
車力,2022/03/06 18:00,53
車力,2022/03/06 19:00,54
車力,2022/03/06 20:00,54
車力,2022/03/06 21:00,54
車力,2022/03/06 22:00,54
車力,2022/03/06 23:00,54
車力,2022/03/07 00:00,53
車力,2022/03/07 01:00,53
車力,2022/03/07 02:00,54
車力,2022/03/07 03:00,54
車力,2022/03/07 04:00,54
車力,2022/03/07 05:00,54
車力,2022/03/07 06:00,53
車力,2022/03/07 07:00,53
車力,2022/03/07 08:00,54
車力,2022/03/07 09:00,54
車力,2022/03/07 10:00,53
車力,2022/03/07 11:00,53
車力,2022/03/07 12:00,52
車力,2022/03/07 13:00,51
車力,2022/03/07 14:00,51
車力,2022/03/07 15:00,51
車力,2022/03/07 16:00,51
車力,2022/03/07 17:00,52
車力,2022/03/07 18:00,51
車力,2022/03/07 19:00,51
車力,2022/03/07 20:00,51
車力,2022/03/07 21:00,51
車力,2022/03/07 22:00,51
車力,2022/03/07 23:00,51
車力,2022/03/08 00:00,51
車力,2022/03/08 01:00,51
車力,2022/03/08 02:00,51
車力,2022/03/08 03:00,51
車力,2022/03/08 04:00,51
車力,2022/03/08 05:00,51
車力,2022/03/08 06:00,51
車力,2022/03/08 07:00,51
車力,2022/03/08 08:00,51
車力,2022/03/08 09:00,51
車力,2022/03/08 10:00,51
車力,2022/03/08 11:00,51
車力,2022/03/08 12:00,51
車力,2022/03/08 13:00,50
車力,2022/03/08 14:00,49
車力,2022/03/08 15:00,49
車力,2022/03/08 16:00,49
車力,2022/03/08 17:00,49
車力,2022/03/08 18:00,49
車力,2022/03/08 19:00,49
車力,2022/03/08 20:00,49
車力,2022/03/08 21:00,49
車力,2022/03/08 22:00,49
車力,2022/03/08 23:00,49
車力,2022/03/09 00:00,49
車力,2022/03/09 01:00,49
車力,2022/03/09 02:00,49
車力,2022/03/09 03:00,49
車力,2022/03/09 04:00,49
車力,2022/03/09 05:00,49
車力,2022/03/09 06:00,49
車力,2022/03/09 07:00,49
車力,2022/03/09 08:00,50
車力,2022/03/09 09:00,49
車力,2022/03/09 10:00,49
車力,2022/03/09 11:00,49
車力,2022/03/09 12:00,48
車力,2022/03/09 13:00,47
車力,2022/03/09 14:00,46
車力,2022/03/09 15:00,46
車力,2022/03/09 16:00,46
車力,2022/03/09 17:00,46
車力,2022/03/09 18:00,46
車力,2022/03/09 19:00,46
車力,2022/03/09 20:00,46
車力,2022/03/09 21:00,46
車力,2022/03/09 22:00,46
車力,2022/03/09 23:00,46
車力,2022/03/10 00:00,46
車力,2022/03/10 01:00,46
車力,2022/03/10 02:00,46
車力,2022/03/10 03:00,46
車力,2022/03/10 04:00,46
車力,2022/03/10 05:00,46
車力,2022/03/10 06:00,46
車力,2022/03/10 07:00,46
車力,2022/03/10 08:00,47
車力,2022/03/10 09:00,46
車力,2022/03/10 10:00,46
車力,2022/03/10 11:00,45
車力,2022/03/10 12:00,45
車力,2022/03/10 13:00,44
車力,2022/03/10 14:00,43
車力,2022/03/10 15:00,43
車力,2022/03/10 16:00,42
車力,2022/03/10 17:00,42
車力,2022/03/10 18:00,43
車力,2022/03/10 19:00,43
車力,2022/03/10 20:00,43
車力,2022/03/10 21:00,43
車力,2022/03/10 22:00,43
車力,2022/03/10 23:00,43
車力,2022/03/11 00:00,43
車力,2022/03/11 01:00,43
車力,2022/03/11 02:00,43
車力,2022/03/11 03:00,43
車力,2022/03/11 04:00,43
車力,2022/03/11 05:00,43
車力,2022/03/11 06:00,43
車力,2022/03/11 07:00,43
車力,2022/03/11 08:00,43
車力,2022/03/11 09:00,43
車力,2022/03/11 10:00,43
車力,2022/03/11 11:00,43
車力,2022/03/11 12:00,42
車力,2022/03/11 13:00,42
車力,2022/03/11 14:00,41
車力,2022/03/11 15:00,41
車力,2022/03/11 16:00,40
車力,2022/03/11 17:00,40
車力,2022/03/11 18:00,40
車力,2022/03/11 19:00,39
車力,2022/03/11 20:00,37
車力,2022/03/11 21:00,36
車力,2022/03/11 22:00,36
車力,2022/03/11 23:00,36
車力,2022/03/12 00:00,36
車力,2022/03/12 01:00,36
車力,2022/03/12 02:00,35
車力,2022/03/12 03:00,35
車力,2022/03/12 04:00,35
車力,2022/03/12 05:00,35
車力,2022/03/12 06:00,35
車力,2022/03/12 07:00,36
車力,2022/03/12 08:00,36
車力,2022/03/12 09:00,36
車力,2022/03/12 10:00,35
車力,2022/03/12 11:00,35
車力,2022/03/12 12:00,35
車力,2022/03/12 13:00,34
車力,2022/03/12 14:00,33
車力,2022/03/12 15:00,33
車力,2022/03/12 16:00,32
車力,2022/03/12 17:00,32
車力,2022/03/12 18:00,33
車力,2022/03/12 19:00,33
車力,2022/03/12 20:00,33
車力,2022/03/12 21:00,33
車力,2022/03/12 22:00,33
車力,2022/03/12 23:00,33
車力,2022/03/13 00:00,33
車力,2022/03/13 01:00,33
車力,2022/03/13 02:00,33
車力,2022/03/13 03:00,33
車力,2022/03/13 04:00,33
車力,2022/03/13 05:00,33
車力,2022/03/13 06:00,33
車力,2022/03/13 07:00,33
車力,2022/03/13 08:00,33
車力,2022/03/13 09:00,33
車力,2022/03/13 10:00,33
車力,2022/03/13 11:00,33
車力,2022/03/13 12:00,32
車力,2022/03/13 13:00,32
車力,2022/03/13 14:00,32
車力,2022/03/13 15:00,32
車力,2022/03/13 16:00,32
車力,2022/03/13 17:00,32
車力,2022/03/13 18:00,32
車力,2022/03/13 19:00,31
車力,2022/03/13 20:00,31
車力,2022/03/13 21:00,30
車力,2022/03/13 22:00,30
車力,2022/03/13 23:00,30
車力,2022/03/14 00:00,29
車力,2022/03/14 01:00,29
車力,2022/03/14 02:00,29
車力,2022/03/14 03:00,28
車力,2022/03/14 04:00,29
車力,2022/03/14 05:00,28
車力,2022/03/14 06:00,28
車力,2022/03/14 07:00,28
車力,2022/03/14 08:00,28
車力,2022/03/14 09:00,28
車力,2022/03/14 10:00,28
車力,2022/03/14 11:00,27
車力,2022/03/14 12:00,26
車力,2022/03/14 13:00,26
車力,2022/03/14 14:00,24
車力,2022/03/14 15:00,23
車力,2022/03/14 16:00,23
車力,2022/03/14 17:00,23
車力,2022/03/14 18:00,23
車力,2022/03/14 19:00,23
車力,2022/03/14 20:00,23
車力,2022/03/14 21:00,23
車力,2022/03/14 22:00,22
車力,2022/03/14 23:00,22
車力,2022/03/15 00:00,22
車力,2022/03/15 01:00,22
車力,2022/03/15 02:00,22
車力,2022/03/15 03:00,22
車力,2022/03/15 04:00,21
車力,2022/03/15 05:00,21
車力,2022/03/15 06:00,21
車力,2022/03/15 07:00,20
車力,2022/03/15 08:00,20
車力,2022/03/15 09:00,20
車力,2022/03/15 10:00,20
車力,2022/03/15 11:00,18
車力,2022/03/15 12:00,18
車力,2022/03/15 13:00,17
車力,2022/03/15 14:00,16
車力,2022/03/15 15:00,16
車力,2022/03/15 16:00,15
車力,2022/03/15 17:00,14
車力,2022/03/15 18:00,13
車力,2022/03/15 19:00,13
車力,2022/03/15 20:00,13
車力,2022/03/15 21:00,12
車力,2022/03/15 22:00,12
車力,2022/03/15 23:00,12
車力,2022/03/16 00:00,12
車力,2022/03/16 01:00,11
車力,2022/03/16 02:00,11
車力,2022/03/16 03:00,11
車力,2022/03/16 04:00,11
車力,2022/03/16 05:00,11
車力,2022/03/16 06:00,11
車力,2022/03/16 07:00,11
車力,2022/03/16 08:00,11
車力,2022/03/16 09:00,11
車力,2022/03/16 10:00,11
車力,2022/03/16 11:00,10
車力,2022/03/16 12:00,9
車力,2022/03/16 13:00,9
車力,2022/03/16 14:00,8
車力,2022/03/16 15:00,8
車力,2022/03/16 16:00,8
車力,2022/03/16 17:00,8
車力,2022/03/16 18:00,7
車力,2022/03/16 19:00,7
車力,2022/03/16 20:00,7
車力,2022/03/16 21:00,8
車力,2022/03/16 22:00,7
車力,2022/03/16 23:00,7
車力,2022/03/17 00:00,7
車力,2022/03/17 01:00,7
車力,2022/03/17 02:00,7
車力,2022/03/17 03:00,8
車力,2022/03/17 04:00,8
車力,2022/03/17 05:00,8
車力,2022/03/17 06:00,8
車力,2022/03/17 07:00,8
車力,2022/03/17 08:00,8
車力,2022/03/17 09:00,8
車力,2022/03/17 10:00,7
車力,2022/03/17 11:00,6
車力,2022/03/17 12:00,6
車力,2022/03/17 13:00,5
車力,2022/03/17 14:00,4
車力,2022/03/17 15:00,4
車力,2022/03/17 16:00,2
車力,2022/03/17 17:00,3
車力,2022/03/17 18:00,3
車力,2022/03/17 19:00,3
車力,2022/03/17 20:00,3
車力,2022/03/17 21:00,3
車力,2022/03/17 22:00,3
車力,2022/03/17 23:00,3
車力,2022/03/18 00:00,3
車力,2022/03/18 01:00,3
車力,2022/03/18 02:00,3
車力,2022/03/18 03:00,3
車力,2022/03/18 04:00,3
車力,2022/03/18 05:00,3
車力,2022/03/18 06:00,3
車力,2022/03/18 07:00,3
車力,2022/03/18 08:00,3
車力,2022/03/18 09:00,3
車力,2022/03/18 10:00,3
車力,2022/03/18 11:00,2
車力,2022/03/18 12:00,2
車力,2022/03/18 13:00,0
車力,2022/03/18 14:00,0
車力,2022/03/18 15:00,0
車力,2022/03/18 16:00,0
車力,2022/03/18 17:00,0
車力,2022/03/18 18:00,0
車力,2022/03/18 19:00,0
車力,2022/03/18 20:00,0
車力,2022/03/18 21:00,0
車力,2022/03/18 22:00,0
車力,2022/03/18 23:00,0
車力,2022/03/19 00:00,0
車力,2022/03/19 01:00,0
車力,2022/03/19 02:00,0
車力,2022/03/19 03:00,0
車力,2022/03/19 04:00,0
車力,2022/03/19 05:00,0
車力,2022/03/19 06:00,0
車力,2022/03/19 07:00,0
車力,2022/03/19 08:00,0
車力,2022/03/19 09:00,0
車力,2022/03/19 10:00,0
車力,2022/03/19 11:00,0
車力,2022/03/19 12:00,0
車力,2022/03/19 13:00,0
車力,2022/03/19 14:00,0
車力,2022/03/19 15:00,0
車力,2022/03/19 16:00,0
車力,2022/03/19 17:00,0
車力,2022/03/19 18:00,0
車力,2022/03/19 19:00,0
車力,2022/03/19 20:00,0
車力,2022/03/19 21:00,0
車力,2022/03/19 22:00,0
車力,2022/03/19 23:00,0
車力,2022/03/20 00:00,0
車力,2022/03/20 01:00,0
車力,2022/03/20 02:00,0
車力,2022/03/20 03:00,0
車力,2022/03/20 04:00,0
車力,2022/03/20 05:00,0
車力,2022/03/20 06:00,0
車力,2022/03/20 07:00,0
車力,2022/03/20 08:00,0
車力,2022/03/20 09:00,0
車力,2022/03/20 10:00,0
車力,2022/03/20 11:00,0
車力,2022/03/20 12:00,0
車力,2022/03/20 13:00,0
車力,2022/03/20 14:00,0
車力,2022/03/20 15:00,0
車力,2022/03/20 16:00,0
車力,2022/03/20 17:00,0
車力,2022/03/20 18:00,0
車力,2022/03/20 19:00,0
車力,2022/03/20 20:00,0
車力,2022/03/20 21:00,0
車力,2022/03/20 22:00,0
車力,2022/03/20 23:00,0
車力,2022/03/21 00:00,0
車力,2022/03/21 02:00,0
車力,2022/03/21 03:00,0
車力,2022/03/21 04:00,0
車力,2022/03/21 05:00,0
車力,2022/03/21 06:00,0
車力,2022/03/21 07:00,0
車力,2022/03/21 08:00,0
車力,2022/03/21 09:00,0
車力,2022/03/21 10:00,0
車力,2022/03/21 11:00,0
車力,2022/03/21 12:00,0
車力,2022/03/21 13:00,0
車力,2022/03/21 14:00,0
車力,2022/03/21 15:00,0
車力,2022/03/21 16:00,0
車力,2022/03/21 17:00,0
車力,2022/03/21 18:00,0
車力,2022/03/21 19:00,0
車力,2022/03/21 20:00,0
車力,2022/03/21 21:00,0
車力,2022/03/21 22:00,0
車力,2022/03/21 23:00,0
車力,2022/03/22 00:00,0
車力,2022/03/22 01:00,0
車力,2022/03/22 02:00,0
車力,2022/03/22 03:00,0
車力,2022/03/22 04:00,0
車力,2022/03/22 05:00,0
車力,2022/03/22 06:00,0
車力,2022/03/22 07:00,0
車力,2022/03/22 08:00,0
車力,2022/03/22 09:00,0
車力,2022/03/22 10:00,0
車力,2022/03/22 11:00,0
車力,2022/03/22 12:00,0
車力,2022/03/22 13:00,0
車力,2022/03/22 14:00,0
車力,2022/03/22 15:00,0
車力,2022/03/22 16:00,0
車力,2022/03/22 17:00,0
車力,2022/03/22 18:00,0
車力,2022/03/22 19:00,0
車力,2022/03/22 20:00,0
車力,2022/03/22 21:00,0
車力,2022/03/22 22:00,0
車力,2022/03/22 23:00,0
車力,2022/03/23 00:00,0
車力,2022/03/23 01:00,0
車力,2022/03/23 02:00,0
車力,2022/03/23 03:00,0
車力,2022/03/23 04:00,0
車力,2022/03/23 05:00,0
車力,2022/03/23 06:00,0
車力,2022/03/23 07:00,0
車力,2022/03/23 08:00,0
車力,2022/03/23 09:00,0
車力,2022/03/23 10:00,0
車力,2022/03/23 11:00,0
車力,2022/03/23 13:00,0
車力,2022/03/23 17:00,0
車力,2022/03/23 21:00,0
車力,2022/03/23 22:00,0
車力,2022/03/24 09:00,0
車力,2022/03/24 13:00,0
車力,2022/03/24 14:00,0
車力,2022/03/24 15:00,0
車力,2022/03/24 17:00,0
車力,2022/03/24 22:00,0
車力,2022/03/24 23:00,0
車力,2022/03/25 00:00,0
車力,2022/03/25 02:00,0
車力,2022/03/25 05:00,0
車力,2022/03/25 07:00,0
車力,2022/03/25 09:00,0
車力,2022/04/08 15:00,0
車力,2022/04/08 16:00,0
車力,2022/04/08 17:00,0
車力,2022/04/08 18:00,0
車力,2022/04/08 19:00,0
車力,2022/04/08 20:00,0
車力,2022/04/08 21:00,0
車力,2022/04/08 22:00,0
車力,2022/04/08 23:00,0
車力,2022/04/09 00:00,0
車力,2022/04/09 01:00,0
車力,2022/04/09 02:00,0
車力,2022/04/09 03:00,0
車力,2022/04/09 04:00,0
車力,2022/04/09 05:00,0
車力,2022/04/09 06:00,0
車力,2022/04/09 07:00,0
車力,2022/04/09 08:00,0
車力,2022/04/09 09:00,0
車力,2022/04/09 10:00,0
車力,2022/04/09 11:00,0
車力,2022/04/09 12:00,0
車力,2022/04/09 13:00,0
車力,2022/04/09 14:00,0
車力,2022/04/09 15:00,0
車力,2022/04/09 16:00,0
車力,2022/04/09 17:00,0
車力,2022/04/09 18:00,0
車力,2022/04/09 19:00,0
車力,2022/04/09 20:00,0
車力,2022/04/09 21:00,0
車力,2022/04/09 22:00,0
車力,2022/04/09 23:00,0
車力,2022/04/10 00:00,0
車力,2022/04/10 01:00,0
車力,2022/04/10 02:00,0
車力,2022/04/10 03:00,0
車力,2022/04/10 04:00,0
車力,2022/04/10 05:00,0
車力,2022/04/10 06:00,0
車力,2022/04/10 07:00,0
車力,2022/04/10 08:00,0
車力,2022/04/10 09:00,0
車力,2022/04/10 10:00,0
車力,2022/04/10 11:00,0
車力,2022/04/10 12:00,0
車力,2022/04/10 13:00,0
車力,2022/04/10 14:00,0
車力,2022/04/10 15:00,0
車力,2022/04/10 16:00,0
車力,2022/04/10 17:00,0
車力,2022/04/10 18:00,0
車力,2022/04/10 19:00,0
車力,2022/04/10 20:00,0
車力,2022/04/10 21:00,0
車力,2022/04/10 22:00,0
車力,2022/04/10 23:00,0
車力,2022/04/11 00:00,0
車力,2022/04/11 01:00,0
車力,2022/04/11 02:00,0
車力,2022/04/11 03:00,0
車力,2022/04/11 04:00,0
車力,2022/04/11 05:00,0
車力,2022/04/11 06:00,0
車力,2022/04/11 07:00,0
車力,2022/04/11 08:00,0
車力,2022/04/11 09:00,0
車力,2022/04/11 10:00,0
車力,2022/04/11 11:00,0
車力,2022/04/11 12:00,0
車力,2022/04/11 13:00,0
車力,2022/04/11 14:00,0
車力,2022/04/11 15:00,0
車力,2022/04/11 16:00,0
車力,2022/04/11 17:00,0
車力,2022/04/11 18:00,0
車力,2022/04/11 19:00,0
車力,2022/04/11 20:00,0
車力,2022/04/11 21:00,0
車力,2022/04/11 22:00,0
車力,2022/04/11 23:00,0
車力,2022/04/12 00:00,0
車力,2022/04/12 01:00,0
車力,2022/04/12 02:00,0
車力,2022/04/12 03:00,0
車力,2022/04/12 04:00,0
車力,2022/04/12 05:00,0
車力,2022/04/12 06:00,0
車力,2022/04/12 07:00,0
車力,2022/04/12 08:00,0
車力,2022/04/12 09:00,0
車力,2022/04/12 10:00,0
車力,2022/04/12 11:00,0
車力,2022/04/12 12:00,0
車力,2022/04/12 13:00,0
車力,2022/04/12 14:00,0
車力,2022/04/12 15:00,0
車力,2022/04/12 16:00,0
車力,2022/04/12 17:00,0
車力,2022/04/12 18:00,0
車力,2022/04/12 19:00,0
車力,2022/04/12 20:00,0
車力,2022/04/12 21:00,0
車力,2022/04/12 22:00,0
車力,2022/04/12 23:00,0
車力,2022/04/13 00:00,0
車力,2022/04/13 01:00,0
車力,2022/04/13 02:00,0
車力,2022/04/13 03:00,0
車力,2022/04/13 04:00,0
車力,2022/04/13 05:00,0
車力,2022/04/13 06:00,0
車力,2022/04/13 07:00,0
車力,2022/04/13 08:00,0
車力,2022/04/13 09:00,0
車力,2022/04/13 10:00,0
車力,2022/04/13 11:00,0
車力,2022/04/13 12:00,0
車力,2022/04/13 13:00,0
車力,2022/04/13 14:00,0
車力,2022/04/13 15:00,0
車力,2022/04/13 16:00,0
車力,2022/04/13 17:00,0
車力,2022/04/13 18:00,0
車力,2022/04/13 19:00,0
車力,2022/04/13 20:00,0
車力,2022/04/13 21:00,0
車力,2022/04/13 22:00,0
車力,2022/04/13 23:00,0
車力,2022/04/14 00:00,0
車力,2022/04/14 01:00,0
車力,2022/04/14 02:00,0
車力,2022/04/14 03:00,0
車力,2022/04/14 04:00,0
車力,2022/04/14 05:00,0
車力,2022/04/14 06:00,0
車力,2022/04/14 07:00,0
車力,2022/04/14 08:00,0
車力,2022/04/14 09:00,0
車力,2022/04/14 10:00,0
車力,2022/04/14 11:00,0
車力,2022/04/14 12:00,0
車力,2022/04/14 13:00,0
車力,2022/04/14 14:00,0
車力,2022/04/14 15:00,0
車力,2022/04/14 16:00,0
車力,2022/04/14 17:00,0
車力,2022/04/14 18:00,0
車力,2022/04/14 19:00,0
車力,2022/04/14 20:00,0
車力,2022/04/14 21:00,0
車力,2022/04/14 22:00,0
車力,2022/04/14 23:00,0
車力,2022/04/15 00:00,0
車力,2022/04/15 01:00,0
車力,2022/04/15 02:00,0
車力,2022/04/15 03:00,0
車力,2022/04/15 04:00,0
車力,2022/04/15 05:00,0
車力,2022/04/15 06:00,0
車力,2022/04/15 07:00,0
車力,2022/04/15 08:00,0
車力,2022/04/15 09:00,0
車力,2022/04/15 10:00,0
車力,2022/04/15 11:00,0
車力,2022/04/15 12:00,0
車力,2022/04/15 13:00,0
車力,2022/04/15 14:00,0
車力,2022/04/15 15:00,0
車力,2022/04/15 16:00,0
車力,2022/04/15 17:00,0
車力,2022/04/15 18:00,0
車力,2022/04/15 19:00,0
車力,2022/04/15 20:00,0
車力,2022/04/15 21:00,0
車力,2022/04/15 22:00,0
車力,2022/04/15 23:00,0
車力,2022/04/16 00:00,0
車力,2022/04/16 01:00,0
車力,2022/04/16 02:00,0
車力,2022/04/16 03:00,0
車力,2022/04/16 04:00,0
車力,2022/04/16 05:00,0
車力,2022/04/16 06:00,0
車力,2022/04/16 07:00,0
車力,2022/04/16 08:00,0
車力,2022/04/16 09:00,1
車力,2022/04/16 10:00,0
車力,2022/04/16 11:00,0
車力,2022/04/16 12:00,0
車力,2022/04/16 13:00,0
車力,2022/04/16 14:00,0
車力,2022/04/16 15:00,0
車力,2022/04/16 16:00,0
車力,2022/04/16 17:00,0
車力,2022/04/16 18:00,0
車力,2022/04/16 19:00,0
車力,2022/04/16 20:00,0
車力,2022/04/16 21:00,0
車力,2022/04/16 22:00,0
車力,2022/04/16 23:00,0
車力,2022/04/17 00:00,0
車力,2022/04/17 01:00,0
車力,2022/04/17 02:00,0
車力,2022/04/17 03:00,0
車力,2022/04/17 04:00,0
車力,2022/04/17 05:00,0
車力,2022/04/17 06:00,0
車力,2022/04/17 07:00,0
車力,2022/04/17 08:00,0
車力,2022/04/17 09:00,0
車力,2022/04/17 10:00,0
車力,2022/04/17 11:00,0
車力,2022/04/17 12:00,0
車力,2022/04/17 13:00,0
車力,2022/04/17 14:00,0
車力,2022/04/17 15:00,0
車力,2022/04/17 16:00,0
車力,2022/04/17 17:00,0
車力,2022/04/17 18:00,0
車力,2022/04/17 19:00,0
車力,2022/04/17 20:00,0
車力,2022/04/17 21:00,0
車力,2022/04/17 22:00,0
車力,2022/04/17 23:00,0
車力,2022/04/18 00:00,0
車力,2022/04/18 01:00,0
車力,2022/04/18 02:00,0
車力,2022/04/18 03:00,0
車力,2022/04/18 04:00,0
車力,2022/04/18 05:00,0
車力,2022/04/18 06:00,0
車力,2022/04/18 07:00,0
車力,2022/04/18 08:00,0
車力,2022/04/18 09:00,1
車力,2022/04/18 10:00,0
車力,2022/04/18 11:00,0
車力,2022/04/18 12:00,0
車力,2022/04/18 13:00,0
車力,2022/04/18 14:00,0
車力,2022/04/18 15:00,0
車力,2022/04/18 16:00,0
車力,2022/04/18 17:00,0
車力,2022/04/18 18:00,0
車力,2022/04/18 19:00,0
車力,2022/04/18 20:00,0
車力,2022/04/18 21:00,0
車力,2022/04/18 22:00,0
車力,2022/04/18 23:00,0
車力,2022/04/19 00:00,0
車力,2022/04/19 01:00,0
車力,2022/04/19 02:00,0
車力,2022/04/19 03:00,0
車力,2022/04/19 04:00,0
車力,2022/04/19 05:00,0
車力,2022/04/19 06:00,0
車力,2022/04/19 07:00,1
車力,2022/04/19 08:00,0
車力,2022/04/19 09:00,1
車力,2022/04/19 10:00,0
車力,2022/04/19 11:00,0
車力,2022/04/19 12:00,0
車力,2022/04/19 13:00,0
車力,2022/04/19 14:00,0
車力,2022/04/19 15:00,0
車力,2022/04/19 16:00,0
車力,2022/04/19 17:00,0
車力,2022/04/19 18:00,0
車力,2022/04/19 19:00,0
車力,2022/04/19 20:00,0
車力,2022/04/19 21:00,0
車力,2022/04/19 22:00,0
車力,2022/04/19 23:00,0
車力,2022/04/20 00:00,0
車力,2022/04/20 01:00,0
車力,2022/04/20 02:00,0
車力,2022/04/20 03:00,0
車力,2022/04/20 04:00,0
車力,2022/04/20 05:00,0
車力,2022/04/20 06:00,0
車力,2022/04/20 07:00,0
車力,2022/04/20 08:00,0
車力,2022/04/20 09:00,0
車力,2022/04/20 10:00,0
車力,2022/04/20 11:00,0
車力,2022/04/20 12:00,0
車力,2022/04/20 13:00,0
車力,2022/04/20 14:00,0
車力,2022/04/20 15:00,0
車力,2022/04/20 16:00,0
車力,2022/04/20 17:00,0
車力,2022/04/20 18:00,0
車力,2022/04/20 19:00,0
車力,2022/04/20 20:00,0
車力,2022/04/20 21:00,0
車力,2022/04/20 22:00,0
車力,2022/04/20 23:00,0
車力,2022/04/21 00:00,0
車力,2022/04/21 01:00,0
車力,2022/04/21 02:00,0
車力,2022/04/21 03:00,0
車力,2022/04/21 04:00,0
車力,2022/04/21 05:00,0
車力,2022/04/21 06:00,0
車力,2022/04/21 07:00,0
車力,2022/04/21 08:00,0
車力,2022/04/21 09:00,0
車力,2022/04/21 10:00,0
車力,2022/04/21 11:00,0
車力,2022/04/21 12:00,0
車力,2022/04/21 13:00,0
車力,2022/04/21 14:00,0
車力,2022/04/21 15:00,0
車力,2022/04/21 16:00,0
車力,2022/04/21 17:00,0
車力,2022/04/21 18:00,0
車力,2022/04/21 19:00,0
車力,2022/04/21 20:00,0
車力,2022/04/21 21:00,0
車力,2022/04/21 22:00,0
車力,2022/04/21 23:00,0
車力,2022/04/22 00:00,0
車力,2022/04/22 01:00,0
車力,2022/04/22 02:00,0
車力,2022/04/22 03:00,0
車力,2022/04/22 04:00,0
車力,2022/04/22 05:00,0
車力,2022/04/22 06:00,0
車力,2022/04/22 07:00,0
車力,2022/04/22 08:00,0
車力,2022/04/22 09:00,0
車力,2022/04/22 10:00,0
車力,2022/04/22 11:00,0
車力,2022/04/22 12:00,0
車力,2022/04/22 13:00,0
車力,2022/10/25 14:00,0
車力,2022/10/25 15:00,0
車力,2022/10/25 16:00,0
車力,2022/10/25 17:00,0
車力,2022/10/25 18:00,0
車力,2022/10/25 19:00,0
車力,2022/10/25 20:00,0
車力,2022/10/25 21:00,0
車力,2022/10/25 22:00,0
車力,2022/10/25 23:00,0
車力,2022/10/26 00:00,0
車力,2022/10/26 01:00,0
車力,2022/10/26 02:00,0
車力,2022/10/26 03:00,0
車力,2022/10/26 04:00,0
車力,2022/10/26 05:00,0
車力,2022/10/26 06:00,0
車力,2022/10/26 07:00,0
車力,2022/10/26 08:00,0
車力,2022/10/26 09:00,0
車力,2022/10/26 10:00,0
車力,2022/10/26 11:00,0
車力,2022/10/26 12:00,0
車力,2022/10/26 13:00,0
車力,2022/10/26 14:00,0
車力,2022/10/26 15:00,0
車力,2022/10/26 16:00,0
車力,2022/10/26 17:00,0
車力,2022/10/26 18:00,0
車力,2022/10/26 19:00,0
車力,2022/10/26 20:00,0
車力,2022/10/26 21:00,0
車力,2022/10/26 22:00,0
車力,2022/10/26 23:00,0
車力,2022/10/27 00:00,0
車力,2022/10/27 01:00,0
車力,2022/10/27 02:00,0
車力,2022/10/27 03:00,0
車力,2022/10/27 04:00,0
車力,2022/10/27 05:00,0
車力,2022/10/27 06:00,0
車力,2022/10/27 07:00,0
車力,2022/10/27 08:00,0
車力,2022/10/27 09:00,0
車力,2022/10/27 10:00,0
車力,2022/10/27 11:00,0
車力,2022/10/27 12:00,0
車力,2022/10/27 13:00,0
車力,2022/10/27 14:00,0
車力,2022/10/27 15:00,0
車力,2022/10/27 16:00,0
車力,2022/10/27 17:00,0
車力,2022/10/27 18:00,0
車力,2022/10/27 19:00,0
車力,2022/10/27 20:00,0
車力,2022/10/27 21:00,0
車力,2022/10/27 22:00,0
車力,2022/10/27 23:00,0
車力,2022/10/28 00:00,0
車力,2022/10/28 01:00,0
車力,2022/10/28 02:00,0
車力,2022/10/28 03:00,0
車力,2022/10/28 04:00,0
車力,2022/10/28 05:00,0
車力,2022/10/28 06:00,0
車力,2022/10/28 07:00,0
車力,2022/10/28 15:00,0
車力,2022/10/28 16:00,0
車力,2022/10/28 17:00,0
車力,2022/10/28 18:00,0
車力,2022/10/28 19:00,0
車力,2022/10/28 20:00,0
車力,2022/10/28 21:00,0
車力,2022/10/28 22:00,0
車力,2022/10/28 23:00,0
車力,2022/10/29 00:00,0
車力,2022/10/29 01:00,0
車力,2022/10/29 02:00,0
車力,2022/10/29 03:00,0
車力,2022/10/29 04:00,0
車力,2022/10/29 05:00,0
車力,2022/10/29 06:00,0
車力,2022/10/29 07:00,0
車力,2022/10/29 08:00,0
車力,2022/10/29 09:00,0